IPTRJ LFLL-LIEO

Flight info

Callsign IPTRJ
Flight time 1h 16m
Altitude 33000
Route ROMAM T43 EVALA A3 RETNO/N0357F190 A3 PERUS G374 AGEVU DCT MERLU DCT AJO A9 CORSI
Aircraft HDJT/L-SABDGRWY/H

Departure

Time 2026-05-07 16:23
Airport Lyon Saint-Exupéry Airport (LFLL)

Arrival

Time 2026-05-07 17:40
Airport Olbia Costa Smeralda Airport (LIEO)
Time Latitude Longitude Altitude Speed Heading
2026-05-07 15:55 45.72411 5.08183 783 ft 0 kts 226°
2026-05-07 16:13 45.72410 5.08181 783 ft 1 kts 235°
2026-05-07 16:14 45.72411 5.08169 783 ft 1 kts 322°
2026-05-07 16:14 45.72421 5.08182 782 ft 5 kts 70°
2026-05-07 16:14 45.72464 5.08206 782 ft 4 kts 33°
2026-05-07 16:14 45.72473 5.08223 782 ft 0 kts 77°
2026-05-07 16:16 45.72476 5.08241 782 ft 7 kts 76°
2026-05-07 16:16 45.72493 5.08348 782 ft 13 kts 97°
2026-05-07 16:16 45.72428 5.08402 783 ft 11 kts 175°
2026-05-07 16:16 45.72350 5.08411 784 ft 13 kts 175°
2026-05-07 16:17 45.72242 5.08424 785 ft 18 kts 174°
2026-05-07 16:17 45.72110 5.08441 787 ft 19 kts 175°
2026-05-07 16:17 45.71982 5.08456 789 ft 18 kts 175°
2026-05-07 16:17 45.71867 5.08470 790 ft 16 kts 175°
2026-05-07 16:18 45.71752 5.08484 791 ft 18 kts 175°
2026-05-07 16:18 45.71611 5.08502 793 ft 21 kts 175°
2026-05-07 16:18 45.71471 5.08518 795 ft 19 kts 175°
2026-05-07 16:18 45.71342 5.08533 796 ft 19 kts 175°
2026-05-07 16:19 45.71190 5.08552 798 ft 22 kts 167°
2026-05-07 16:19 45.71108 5.08710 799 ft 20 kts 105°
2026-05-07 16:19 45.71076 5.08892 800 ft 4 kts 90°
2026-05-07 16:19 45.71076 5.08893 800 ft 0 kts 90°
2026-05-07 16:21 45.71078 5.08920 799 ft 7 kts 71°
2026-05-07 16:22 45.71115 5.09021 798 ft 14 kts 24°
2026-05-07 16:22 45.71168 5.09018 797 ft 0 kts 355°
2026-05-07 16:22 45.71196 5.09015 797 ft 16 kts 355°
2026-05-07 16:22 45.71577 5.08968 794 ft 99 kts 355°
2026-05-07 16:23 45.72479 5.08854 902 ft 149 kts 355°
2026-05-07 16:23 45.73592 5.08743 1307 ft 170 kts 356°
2026-05-07 16:23 45.74837 5.08621 1786 ft 189 kts 354°
2026-05-07 16:23 45.76222 5.08428 2268 ft 207 kts 353°
2026-05-07 16:24 45.77692 5.08205 2917 ft 218 kts 354°
2026-05-07 16:24 45.79235 5.08006 3549 ft 229 kts 355°
2026-05-07 16:24 45.80840 5.07882 4182 ft 238 kts 357°
2026-05-07 16:24 45.82509 5.08038 4829 ft 247 kts 17°
2026-05-07 16:25 45.83947 5.09403 5508 ft 254 kts 51°
2026-05-07 16:25 45.84667 5.11721 6200 ft 260 kts 82°
2026-05-07 16:25 45.84472 5.14290 6921 ft 265 kts 111°
2026-05-07 16:25 45.83384 5.16559 6970 ft 296 kts 139°
2026-05-07 16:26 45.81525 5.17888 7516 ft 298 kts 169°
2026-05-07 16:26 45.79520 5.18020 8694 ft 280 kts 181°
2026-05-07 16:26 45.77632 5.18024 9708 ft 273 kts 175°
2026-05-07 16:26 45.76377 5.18335 10319 ft 271 kts 166°
2026-05-07 16:27 45.73965 5.19524 11153 ft 280 kts 160°
2026-05-07 16:27 45.72102 5.20206 12095 ft 273 kts 173°
2026-05-07 16:27 45.70254 5.20245 13171 ft 261 kts 185°
2026-05-07 16:27 45.68504 5.20041 14324 ft 244 kts 186°
2026-05-07 16:28 45.66841 5.19805 15318 ft 237 kts 186°
2026-05-07 16:28 45.65112 5.19714 15585 ft 263 kts 180°
2026-05-07 16:28 45.63269 5.19729 16190 ft 267 kts 181°
2026-05-07 16:28 45.61415 5.19638 16938 ft 270 kts 183°
2026-05-07 16:29 45.59516 5.19458 17541 ft 276 kts 185°
2026-05-07 16:29 45.57610 5.19292 18345 ft 273 kts 182°
2026-05-07 16:29 45.55692 5.19237 18838 ft 279 kts 181°
2026-05-07 16:29 45.53733 5.19145 19433 ft 282 kts 183°
2026-05-07 16:30 45.51766 5.18996 20113 ft 285 kts 183°
2026-05-07 16:30 45.49779 5.18858 20764 ft 287 kts 183°
2026-05-07 16:30 45.47770 5.18735 21418 ft 290 kts 183°
2026-05-07 16:30 45.45768 5.18610 22049 ft 294 kts 183°
2026-05-07 16:31 45.43715 5.18477 22693 ft 296 kts 183°
2026-05-07 16:31 45.41646 5.18343 23338 ft 299 kts 183°
2026-05-07 16:31 45.39559 5.18210 23970 ft 302 kts 183°
2026-05-07 16:31 45.37449 5.18076 24576 ft 305 kts 183°
2026-05-07 16:32 45.35320 5.17939 25159 ft 308 kts 183°
2026-05-07 16:32 45.33167 5.17802 25720 ft 311 kts 183°
2026-05-07 16:32 45.30998 5.17663 26259 ft 314 kts 183°
2026-05-07 16:32 45.28808 5.17523 26764 ft 317 kts 183°
2026-05-07 16:33 45.26594 5.17382 27259 ft 320 kts 183°
2026-05-07 16:33 45.24391 5.17242 27741 ft 322 kts 183°
2026-05-07 16:33 45.22140 5.17099 28203 ft 325 kts 183°
2026-05-07 16:33 45.19871 5.16954 28656 ft 328 kts 183°
2026-05-07 16:34 45.17585 5.16809 29085 ft 330 kts 183°
2026-05-07 16:34 45.15285 5.16663 29508 ft 332 kts 183°
2026-05-07 16:34 45.12966 5.16516 29933 ft 334 kts 183°
2026-05-07 16:34 45.10635 5.16373 30324 ft 336 kts 181°
2026-05-07 16:35 45.08296 5.16525 30726 ft 337 kts 175°
2026-05-07 16:35 45.05964 5.16820 31199 ft 336 kts 175°
2026-05-07 16:35 45.03669 5.17096 31628 ft 335 kts 176°
2026-05-07 16:35 45.01349 5.17342 32041 ft 335 kts 176°
2026-05-07 16:36 44.99023 5.17590 32435 ft 335 kts 176°
2026-05-07 16:36 44.96700 5.17852 32811 ft 335 kts 175°
2026-05-07 16:36 44.94358 5.18118 32995 ft 342 kts 176°
2026-05-07 16:36 44.91941 5.18384 32998 ft 354 kts 176°
2026-05-07 16:37 44.89448 5.18658 32999 ft 364 kts 176°
2026-05-07 16:37 44.84309 5.19233 33008 ft 381 kts 175°
2026-05-07 16:38 44.78924 5.19828 33010 ft 394 kts 176°
2026-05-07 16:38 44.73390 5.20442 33008 ft 403 kts 176°
2026-05-07 16:39 44.67747 5.21065 33008 ft 410 kts 175°
2026-05-07 16:39 44.62055 5.21692 33008 ft 415 kts 175°
2026-05-07 16:40 44.56269 5.22360 33008 ft 419 kts 173°
2026-05-07 16:40 44.53417 5.23222 33010 ft 421 kts 162°
2026-05-07 16:40 44.50711 5.24799 33011 ft 422 kts 152°
2026-05-07 16:40 44.48247 5.27040 33012 ft 423 kts 141°
2026-05-07 16:41 44.46109 5.29864 33011 ft 424 kts 131°
2026-05-07 16:41 44.43063 5.36909 33010 ft 425 kts 110°
2026-05-07 16:42 44.41603 5.44853 33010 ft 425 kts 102°
2026-05-07 16:42 44.40080 5.52838 33009 ft 426 kts 109°
2026-05-07 16:43 44.38257 5.60715 33009 ft 426 kts 110°
2026-05-07 16:43 44.35443 5.67970 33008 ft 426 kts 124°
2026-05-07 16:44 44.32105 5.74805 33010 ft 426 kts 123°
2026-05-07 16:44 44.28930 5.81701 33009 ft 425 kts 123°
2026-05-07 16:45 44.25649 5.88563 33008 ft 424 kts 123°
2026-05-07 16:45 44.22416 5.95440 33009 ft 424 kts 123°
2026-05-07 16:46 44.19153 6.02295 33008 ft 425 kts 123°
2026-05-07 16:46 44.15914 6.09117 33008 ft 425 kts 123°
2026-05-07 16:47 44.12523 6.15864 33008 ft 425 kts 125°
2026-05-07 16:47 44.09130 6.22616 33008 ft 426 kts 125°
2026-05-07 16:48 44.05710 6.29334 33009 ft 426 kts 125°
2026-05-07 16:48 44.02319 6.36018 33008 ft 426 kts 125°
2026-05-07 16:49 43.98890 6.42740 33010 ft 427 kts 125°
2026-05-07 16:49 43.95455 6.49469 33009 ft 427 kts 125°
2026-05-07 16:50 43.92016 6.56185 33009 ft 427 kts 126°
2026-05-07 16:50 43.88598 6.62848 33008 ft 428 kts 126°
2026-05-07 16:51 43.84871 6.69255 33007 ft 427 kts 134°
2026-05-07 16:51 43.80732 6.75173 33008 ft 428 kts 134°
2026-05-07 16:52 43.76657 6.81179 33008 ft 428 kts 134°
2026-05-07 16:52 43.72541 6.87126 33010 ft 428 kts 134°
2026-05-07 16:53 43.68473 6.93046 33010 ft 427 kts 134°
2026-05-07 16:53 43.64397 6.98936 33007 ft 422 kts 134°
2026-05-07 16:54 43.60346 7.04792 33007 ft 422 kts 134°
2026-05-07 16:54 43.56293 7.10634 33007 ft 421 kts 134°
2026-05-07 16:55 43.52274 7.16416 33007 ft 420 kts 134°
2026-05-07 16:55 43.48225 7.22228 33006 ft 421 kts 134°
2026-05-07 16:56 43.44171 7.28037 33006 ft 421 kts 134°
2026-05-07 16:56 43.38113 7.36693 33006 ft 421 kts 134°
2026-05-07 16:57 43.34055 7.42477 33006 ft 421 kts 134°
2026-05-07 16:57 43.29989 7.48260 33006 ft 421 kts 134°
2026-05-07 16:58 43.25925 7.54028 33006 ft 421 kts 134°
2026-05-07 16:58 43.21855 7.59795 33006 ft 421 kts 134°
2026-05-07 16:59 43.17810 7.65513 33006 ft 421 kts 134°
2026-05-07 16:59 43.13736 7.71261 33006 ft 421 kts 134°
2026-05-07 17:00 43.09658 7.77002 33006 ft 420 kts 135°
2026-05-07 17:00 43.04989 7.81748 33007 ft 420 kts 151°
2026-05-07 17:01 42.99878 7.85501 33009 ft 420 kts 151°
2026-05-07 17:01 42.94803 7.89470 33007 ft 420 kts 151°
2026-05-07 17:02 42.89687 7.93329 33009 ft 420 kts 151°
2026-05-07 17:02 42.84595 7.97231 33009 ft 420 kts 151°
2026-05-07 17:03 42.79520 8.01078 33009 ft 420 kts 151°
2026-05-07 17:03 42.74418 8.04956 33010 ft 420 kts 151°
2026-05-07 17:04 42.69309 8.08822 33010 ft 420 kts 151°
2026-05-07 17:04 42.64205 8.12682 33009 ft 420 kts 151°
2026-05-07 17:05 42.59096 8.16537 33009 ft 420 kts 151°
2026-05-07 17:05 42.54021 8.20360 33009 ft 420 kts 151°
2026-05-07 17:06 42.48908 8.24203 33009 ft 420 kts 151°
2026-05-07 17:06 42.43799 8.28036 33009 ft 420 kts 151°
2026-05-07 17:07 42.38684 8.31867 33009 ft 420 kts 151°
2026-05-07 17:07 42.33568 8.35692 33009 ft 420 kts 151°
2026-05-07 17:08 42.28486 8.39483 33009 ft 420 kts 151°
2026-05-07 17:08 42.23368 8.43294 33009 ft 420 kts 151°
2026-05-07 17:09 42.18250 8.47098 33009 ft 420 kts 151°
2026-05-07 17:09 42.13129 8.50898 33009 ft 420 kts 151°
2026-05-07 17:10 42.08043 8.54665 33009 ft 420 kts 151°
2026-05-07 17:10 42.02922 8.58450 33009 ft 420 kts 151°
2026-05-07 17:11 41.97802 8.62228 33009 ft 420 kts 151°
2026-05-07 17:11 41.92718 8.65972 32449 ft 409 kts 151°
2026-05-07 17:12 41.90222 8.67808 31908 ft 410 kts 152°
2026-05-07 17:12 41.87749 8.69624 31369 ft 410 kts 152°
2026-05-07 17:12 41.85244 8.71464 30822 ft 411 kts 152°
2026-05-07 17:12 41.82730 8.73308 30273 ft 412 kts 152°
2026-05-07 17:13 41.80209 8.75154 29723 ft 413 kts 152°
2026-05-07 17:13 41.77598 8.76763 29175 ft 415 kts 161°
2026-05-07 17:13 41.74795 8.77727 28621 ft 416 kts 171°
2026-05-07 17:13 41.71926 8.78057 28071 ft 411 kts 178°
2026-05-07 17:14 41.69076 8.78138 27526 ft 408 kts 179°
2026-05-07 17:14 41.66255 8.78319 26987 ft 404 kts 176°
2026-05-07 17:14 41.63462 8.78643 26452 ft 401 kts 175°
2026-05-07 17:14 41.60694 8.78926 25923 ft 398 kts 176°
2026-05-07 17:15 41.57980 8.79122 25402 ft 394 kts 177°
2026-05-07 17:15 41.55251 8.79329 24880 ft 391 kts 176°
2026-05-07 17:15 41.52545 8.79579 24361 ft 388 kts 176°
2026-05-07 17:15 41.49866 8.79826 23848 ft 385 kts 176°
2026-05-07 17:16 41.47202 8.80047 23339 ft 382 kts 176°
2026-05-07 17:16 41.44564 8.80266 22833 ft 379 kts 176°
2026-05-07 17:16 41.41941 8.80495 22331 ft 376 kts 176°
2026-05-07 17:16 41.39341 8.80721 21833 ft 373 kts 176°
2026-05-07 17:17 41.36796 8.80940 21349 ft 370 kts 175°
2026-05-07 17:17 41.34280 8.81550 20858 ft 368 kts 163°
2026-05-07 17:17 41.31920 8.82829 20367 ft 365 kts 152°
2026-05-07 17:17 41.29807 8.84673 19887 ft 363 kts 143°
2026-05-07 17:18 41.27787 8.86667 19404 ft 360 kts 144°
2026-05-07 17:18 41.25769 8.88627 18927 ft 358 kts 144°
2026-05-07 17:18 41.23768 8.90569 18453 ft 355 kts 144°
2026-05-07 17:18 41.21786 8.92504 17982 ft 353 kts 144°
2026-05-07 17:19 41.19816 8.94425 17515 ft 350 kts 144°
2026-05-07 17:19 41.17860 8.96327 17051 ft 348 kts 144°
2026-05-07 17:19 41.15941 8.98192 16596 ft 345 kts 144°
2026-05-07 17:19 41.14011 9.00068 16139 ft 343 kts 144°
2026-05-07 17:20 41.12091 9.01927 15687 ft 340 kts 145°
2026-05-07 17:20 41.10142 9.03698 15240 ft 339 kts 145°
2026-05-07 17:20 41.08224 9.05482 14798 ft 336 kts 145°
2026-05-07 17:20 41.06330 9.07286 14349 ft 335 kts 141°
2026-05-07 17:21 41.04715 9.09495 13914 ft 334 kts 127°
2026-05-07 17:21 41.03521 9.12117 13472 ft 332 kts 114°
2026-05-07 17:21 41.02810 9.14959 13053 ft 329 kts 101°
2026-05-07 17:21 41.02591 9.17851 13006 ft 302 kts 89°
2026-05-07 17:22 41.02797 9.20519 13004 ft 283 kts 78°
2026-05-07 17:22 41.03360 9.22983 13003 ft 280 kts 67°
2026-05-07 17:22 41.04267 9.25273 13003 ft 281 kts 56°
2026-05-07 17:22 41.05298 9.27461 13001 ft 280 kts 67°
2026-05-07 17:23 41.05750 9.29963 13006 ft 280 kts 86°
2026-05-07 17:23 41.05569 9.32521 13007 ft 280 kts 105°
2026-05-07 17:23 41.04766 9.34862 13011 ft 280 kts 125°
2026-05-07 17:23 41.03453 9.36704 13011 ft 280 kts 144°
2026-05-07 17:24 41.01738 9.37895 13011 ft 279 kts 163°
2026-05-07 17:24 40.99823 9.38276 13010 ft 279 kts 182°
2026-05-07 17:24 40.97924 9.37809 13011 ft 279 kts 201°
2026-05-07 17:24 40.96246 9.36549 13009 ft 278 kts 220°
2026-05-07 17:25 40.94966 9.34654 13008 ft 278 kts 235°
2026-05-07 17:25 40.93867 9.32539 13009 ft 279 kts 236°
2026-05-07 17:25 40.92763 9.30438 13009 ft 278 kts 235°
2026-05-07 17:25 40.91654 9.28339 13009 ft 278 kts 235°
2026-05-07 17:26 40.90563 9.26270 13008 ft 278 kts 235°
2026-05-07 17:26 40.89455 9.24165 13007 ft 279 kts 235°
2026-05-07 17:26 40.88345 9.22061 13009 ft 279 kts 235°
2026-05-07 17:26 40.87236 9.19950 13009 ft 280 kts 235°
2026-05-07 17:27 40.86125 9.17834 13007 ft 277 kts 235°
2026-05-07 17:27 40.85051 9.15794 12984 ft 268 kts 235°
2026-05-07 17:27 40.83983 9.13767 12726 ft 269 kts 235°
2026-05-07 17:27 40.82917 9.11754 12387 ft 266 kts 235°
2026-05-07 17:28 40.81858 9.09765 12038 ft 264 kts 235°
2026-05-07 17:28 40.81162 9.08454 11807 ft 263 kts 235°
2026-05-07 17:28 40.79780 9.05851 11347 ft 260 kts 235°
2026-05-07 17:28 40.78748 9.03909 11003 ft 258 kts 235°
2026-05-07 17:29 40.77711 9.01984 10659 ft 256 kts 232°
2026-05-07 17:29 40.76394 9.00425 10324 ft 255 kts 212°
2026-05-07 17:29 40.74781 8.99468 9987 ft 255 kts 195°
2026-05-07 17:29 40.73032 8.99193 9650 ft 254 kts 178°
2026-05-07 17:30 40.71875 8.99399 9427 ft 253 kts 166°
2026-05-07 17:30 40.70249 9.00269 9092 ft 253 kts 149°
2026-05-07 17:30 40.68540 9.02308 8649 ft 249 kts 126°
2026-05-07 17:30 40.67739 9.04294 8326 ft 244 kts 109°
2026-05-07 17:31 40.67411 9.06455 8001 ft 239 kts 92°
2026-05-07 17:31 40.67454 9.07894 7786 ft 238 kts 82°
2026-05-07 17:31 40.67899 9.09979 7477 ft 237 kts 65°
2026-05-07 17:31 40.68747 9.11856 6889 ft 243 kts 54°
2026-05-07 17:32 40.69706 9.13681 6608 ft 235 kts 56°
2026-05-07 17:32 40.70642 9.15410 6447 ft 232 kts 51°
2026-05-07 17:32 40.71668 9.17068 6198 ft 233 kts 52°
2026-05-07 17:32 40.72604 9.18803 5905 ft 231 kts 56°
2026-05-07 17:33 40.73508 9.20550 5616 ft 230 kts 54°
2026-05-07 17:33 40.74429 9.22274 5322 ft 229 kts 55°
2026-05-07 17:33 40.75312 9.23985 5062 ft 228 kts 55°
2026-05-07 17:33 40.76222 9.25693 4829 ft 225 kts 54°
2026-05-07 17:34 40.77082 9.27354 4589 ft 214 kts 55°
2026-05-07 17:34 40.77917 9.28933 4360 ft 205 kts 54°
2026-05-07 17:34 40.78710 9.30457 4142 ft 198 kts 56°
2026-05-07 17:34 40.79479 9.31914 3941 ft 187 kts 54°
2026-05-07 17:35 40.80177 9.33253 3689 ft 165 kts 55°
2026-05-07 17:35 40.80781 9.34412 3451 ft 143 kts 55°
2026-05-07 17:35 40.81318 9.35429 3241 ft 131 kts 55°
2026-05-07 17:35 40.81832 9.36408 3035 ft 129 kts 54°
2026-05-07 17:36 40.82343 9.37384 2831 ft 129 kts 55°
2026-05-07 17:36 40.82842 9.38360 2643 ft 127 kts 56°
2026-05-07 17:36 40.83339 9.39340 2467 ft 131 kts 55°
2026-05-07 17:36 40.83852 9.40336 2299 ft 132 kts 55°
2026-05-07 17:37 40.84360 9.41323 2123 ft 129 kts 55°
2026-05-07 17:37 40.84860 9.42303 1887 ft 127 kts 54°
2026-05-07 17:37 40.85379 9.43256 1639 ft 128 kts 54°
2026-05-07 17:37 40.85877 9.44191 1456 ft 126 kts 54°
2026-05-07 17:38 40.86381 9.45144 1251 ft 127 kts 54°
2026-05-07 17:38 40.86903 9.46093 1064 ft 127 kts 53°
2026-05-07 17:38 40.87403 9.47059 871 ft 127 kts 56°
2026-05-07 17:38 40.87891 9.48021 668 ft 126 kts 55°
2026-05-07 17:39 40.88383 9.48971 459 ft 126 kts 54°
2026-05-07 17:39 40.88880 9.49911 279 ft 124 kts 54°
2026-05-07 17:39 40.89379 9.50838 87 ft 121 kts 54°
2026-05-07 17:39 40.89813 9.51667 31 ft 100 kts 55°
2026-05-07 17:40 40.90102 9.52214 28 ft 59 kts 55°
2026-05-07 17:40 40.90269 9.52533 27 ft 37 kts 55°
2026-05-07 17:40 40.90417 9.52683 24 ft 22 kts 345°
2026-05-07 17:40 40.90439 9.52666 26 ft 0 kts 301°
2026-05-07 17:42 40.90449 9.52630 25 ft 10 kts 275°
2026-05-07 17:42 40.90454 9.52504 26 ft 16 kts 262°
2026-05-07 17:43 40.90401 9.52389 26 ft 14 kts 236°
2026-05-07 17:43 40.90343 9.52284 27 ft 13 kts 238°
2026-05-07 17:43 40.90287 9.52174 28 ft 19 kts 235°
2026-05-07 17:43 40.90198 9.52003 29 ft 24 kts 236°
2026-05-07 17:44 40.90176 9.51925 30 ft 7 kts 284°
2026-05-07 17:44 40.90197 9.51831 30 ft 10 kts 320°
2026-05-07 17:44 40.90227 9.51766 30 ft 8 kts 246°
2026-05-07 17:44 40.90197 9.51709 31 ft 8 kts 235°
2026-05-07 17:45 40.90154 9.51626 31 ft 7 kts 237°
2026-05-07 17:45 40.90167 9.51600 31 ft 5 kts 328°
2026-05-07 17:45 40.90202 9.51568 31 ft 0 kts 325°